Simultaneous Nadir Overpasses (SNOs) Predictions

Prediction of SNOs between LANDSAT-8 and METOP-B Satellite Orbit:

Table of predicted SNOs for the next 14.0 days since TLE Epoch: 12/14/2015
Index Date (LANDSAT-8) Time (LANDSAT-8) Lat,Lon (LANDSAT-8) SZA (LANDSAT-8 ) Date (METOP-B) Time (METOP-B) Lat,Lon (METOP-B) SZA (METOP-B ) Distance(km) Time Diff (sec)
1 12/15/2015 23:48:00 -81.17, 43.62 73.45 12/15/2015 23:47:09 -81.17, 43.63 73.47 0.20 51
2 12/16/2015 00:37:25 81.20,-148.26 106.62 12/16/2015 00:37:47 81.20,-148.15 106.64 1.88 22
3 12/18/2015 19:22:16 -81.17, 109.98 73.39 12/18/2015 19:21:28 -81.17, 109.97 73.41 0.23 48
4 12/18/2015 20:11:41 81.19, -81.93 106.68 12/18/2015 20:12:06 81.20, -81.84 106.70 1.47 25
5 12/21/2015 14:56:30 -81.18, 176.60 73.36 12/21/2015 14:55:45 -81.18, 176.64 73.37 0.74 45
6
